Find VM-3.1

NORAD ID: 67273 Int'l Des: NNA 2025-313 Owner: STTS Country: RU operational
LEOCIRCULARRETROGRADESSO

Current View

Loading 3D Globe...

About VM-3.1

Description loading...

Upcoming Passes

Passes for default location (London). Set your location on the main map for personalized predictions.

Altitude History

Loading altitude history...

Two-Line Element Set

1 67273U 25313AB 26146.14565465 .00003373 00000-0 15481-3 0 9992
2 67273 97.3962 220.9647 0015992 89.1986 271.1082 15.20985526 22581
Epoch: May 26, 2026 • Age: 18 hours

Current Status

Altitude 516.1 km
Velocity 7.60 km/s
Sub-Earth Point -22.33°S, 172.04°W
Launch Date Dec 28, 2025
Age 0.4 years
Type other

Technical Details

Classification Payload
Mass 3.00 kg
Dry Mass 3.00 kg
Total Mass 3.00 kg
Length 0.30 m
Diameter 0.10 m
Span 0.30 m
Shape Box
Manufacturer STTS
Bus Type Cubesat 3U
Phase Status In Orbit
Owner/State STTS/RU

Most Searched